Escanaba, MI

12:48 PM EDT on August 18, 2017 (GMT -0400)
Delta County

Weather History for KESC - January, 2014

Change the Weather History Date:

Thursday, January 16, 2014

  Actual Average Record
Temperature  
Mean Temperature 19 °F -  
Max Temperature 26 °F 23 °F 42 °F (1999)
Min Temperature 12 °F 7 °F -28 °F (1982)
Degree Days  
Heating Degree Days 46    
Moisture  
Dew Point 18 °F    
Average Humidity 84    
Maximum Humidity 93    
Minimum Humidity 74    
Precipitation  
Precipitation 0.00 in - - ()
Sea Level Pressure  
Sea Level Pressure 29.46 in    
Wind  
Wind Speed 13 mph (SW)    
Max Wind Speed 21 mph    
Max Gust Speed 28 mph    
Visibility 6 miles    
Events      
Averages and records for this station are not official NWS values.
T = Trace of Precipitation, MM = Missing Value Source: NWS Daily Summary

Daily Weather History Graph

Daily Weather History Graph

Search for Another Location

Airport or City:

Trip Planner

Search our weather history database for the weather conditions in past years. The results will help you decide how hot, cold, wet, or windy it might be!

Date:

Astronomy

Jan. 16, 2014 Rise Set
Actual Time 8:24 AM EST 5:32 PM EST
Civil Twilight 7:51 AM EST 6:05 PM EST
Nautical Twilight 7:14 AM EST 6:42 PM EST
Astronomical Twilight 6:39 AM EST 7:17 PM EST
Moon 6:28 PM EST (1/16) 8:13 AM EST (1/16)
Length of Visible Light 10h 13m
Length of Day
9h 07m
Full, 100% of the Moon is Illuminated
Jan 16
Full
Jan 24
Last Quarter
Jan 30
New
Feb 6
First Quarter
Feb 14
Full

Hourly Weather History & Observations

Time (EST) Temp. Windchill Dew Point Humidity Pressure Visibility Wind Dir Wind Speed Gust Speed Precip Events Conditions
12:15 AM 12.2 °F -4.3 °F 6.8 °F 79% 29.62 in 9.0 mi SSW 16.1 mph 21.9 mph N/A   Overcast
12:35 AM 12.2 °F -3.7 °F 6.8 °F 79% 29.60 in 5.0 mi SSW 15.0 mph 25.3 mph N/A   Overcast
12:55 AM 12.2 °F -3.1 °F 8.6 °F 85% 29.59 in 5.0 mi SSW 13.8 mph 24.2 mph N/A   Overcast
1:15 AM 12.2 °F -6.3 °F 6.8 °F 79% 29.57 in 5.0 mi SSW 20.7 mph 27.6 mph N/A   Overcast
1:35 AM 12.2 °F -5.3 °F 8.6 °F 85% 29.56 in 2.5 mi SSW 18.4 mph 27.6 mph N/A   Overcast
1:55 AM 12.2 °F -5.3 °F 8.6 °F 85% 29.55 in 1.2 mi SSW 18.4 mph 26.5 mph N/A   Overcast
2:15 AM 12.2 °F -5.3 °F 8.6 °F 85% 29.54 in 1.0 mi SSW 18.4 mph 25.3 mph N/A   Overcast
2:35 AM 14.0 °F -0.8 °F 10.4 °F 86% 29.53 in 1.2 mi SSW 13.8 mph 24.2 mph N/A   Overcast
2:55 AM 15.8 °F -0.6 °F 10.4 °F 79% 29.52 in 2.5 mi SSW 18.4 mph 26.5 mph N/A   Overcast
3:15 AM 15.8 °F 0.3 °F 10.4 °F 79% 29.52 in 2.5 mi SSW 16.1 mph 24.2 mph N/A   Overcast
3:35 AM 15.8 °F 0.9 °F 10.4 °F 79% 29.51 in 2.0 mi SSW 15.0 mph 24.2 mph N/A   Overcast
3:55 AM 15.8 °F 0.3 °F 12.2 °F 86% 29.49 in 4.0 mi SSW 16.1 mph 21.9 mph N/A   Overcast
4:15 AM 17.6 °F 2.7 °F 12.2 °F 79% 29.48 in 1.8 mi SSW 16.1 mph 26.5 mph N/A   Overcast
4:35 AM 17.6 °F 0.9 °F 14.0 °F 86% 29.46 in 1.2 mi SSW 20.7 mph 27.6 mph N/A   Overcast
4:55 AM 17.6 °F 1.7 °F 14.0 °F 86% 29.46 in 0.5 mi SSW 18.4 mph 26.5 mph N/A   Overcast
5:15 AM 17.6 °F 1.7 °F 15.8 °F 93% 29.44 in 0.8 mi SSW 18.4 mph 25.3 mph N/A   Overcast
5:35 AM 17.6 °F 3.2 °F 14.0 °F 86% 29.43 in 1.0 mi SSW 15.0 mph 24.2 mph N/A   Overcast
5:55 AM 19.4 °F 5.0 °F 14.0 °F 80% 29.43 in 1.0 mi SSW 16.1 mph 23.0 mph N/A   Overcast
6:15 AM 19.4 °F 6.0 °F 14.0 °F 80% 29.42 in 0.8 mi SSW 13.8 mph 21.9 mph N/A   Overcast
6:35 AM 19.4 °F 5.5 °F 15.8 °F 86% 29.42 in 0.8 mi SSW 15.0 mph 24.2 mph N/A   Overcast
6:55 AM 19.4 °F 4.5 °F 15.8 °F 86% 29.41 in 4.0 mi SSW 17.3 mph 23.0 mph N/A   Overcast
7:15 AM 19.4 °F 6.6 °F 15.8 °F 86% 29.41 in 3.0 mi SSW 12.7 mph 19.6 mph N/A   Overcast
7:35 AM 19.4 °F 7.2 °F 15.8 °F 86% 29.41 in 5.0 mi SSW 11.5 mph 17.3 mph N/A   Overcast
7:55 AM 19.4 °F 5.5 °F 15.8 °F 86% 29.40 in 10.0 mi SSW 15.0 mph 21.9 mph N/A   Overcast
8:15 AM 21.2 °F 9.5 °F 17.6 °F 86% 29.40 in 10.0 mi SSW 11.5 mph 18.4 mph N/A   Overcast
8:35 AM 21.2 °F 8.3 °F 17.6 °F 86% 29.39 in 9.0 mi SSW 13.8 mph 20.7 mph N/A   Overcast
8:55 AM 21.2 °F 8.9 °F 17.6 °F 86% 29.40 in 8.0 mi SSW 12.7 mph 19.6 mph N/A   Overcast
9:15 AM 21.2 °F 8.3 °F 17.6 °F 86% 29.40 in 8.0 mi SSW 13.8 mph 20.7 mph N/A   Overcast
9:35 AM 21.2 °F 8.3 °F 17.6 °F 86% 29.40 in 10.0 mi SSW 13.8 mph 17.3 mph N/A   Overcast
9:55 AM 21.2 °F 8.3 °F 17.6 °F 86% 29.39 in 9.0 mi SSW 13.8 mph 20.7 mph N/A   Overcast
10:15 AM 21.2 °F 7.8 °F 17.6 °F 86% 29.40 in 10.0 mi SSW 15.0 mph 19.6 mph N/A   Overcast
10:35 AM 23.0 °F 10.6 °F 17.6 °F 80% 29.40 in 10.0 mi SSW 13.8 mph 18.4 mph N/A   Overcast
10:55 AM 23.0 °F 10.1 °F 17.6 °F 80% 29.40 in 3.0 mi SSW 15.0 mph 20.7 mph N/A   Overcast
11:15 AM 23.0 °F 12.4 °F 19.4 °F 86% 29.40 in 3.0 mi SSW 10.4 mph - N/A   Overcast
11:35 AM 24.8 °F 14.6 °F 19.4 °F 80% 29.40 in 4.0 mi SSW 10.4 mph 18.4 mph N/A   Overcast
11:55 AM 24.8 °F 15.3 °F 19.4 °F 80% 29.39 in 1.5 mi SSW 9.2 mph - N/A   Overcast
12:15 PM 24.8 °F 14.0 °F 19.4 °F 80% 29.39 in 5.0 mi South 11.5 mph - N/A   Overcast
12:35 PM 26.6 °F 14.7 °F 21.2 °F 80% 29.38 in 9.0 mi South 15.0 mph - N/A   Overcast
12:55 PM 26.6 °F 16.2 °F 21.2 °F 80% 29.38 in 10.0 mi SSW 11.5 mph - N/A   Overcast
1:15 PM 26.6 °F 15.2 °F 19.4 °F 74% 29.38 in 10.0 mi SSW 13.8 mph 17.3 mph N/A   Overcast
1:35 PM 26.6 °F 15.2 °F 21.2 °F 80% 29.38 in 10.0 mi South 13.8 mph 18.4 mph N/A   Overcast
1:55 PM 26.6 °F 14.7 °F 21.2 °F 80% 29.38 in 10.0 mi South 15.0 mph 19.6 mph N/A   Overcast
2:15 PM 26.6 °F 15.7 °F 21.2 °F 80% 29.39 in 10.0 mi South 12.7 mph - N/A   Overcast
2:35 PM 26.6 °F 17.5 °F 21.2 °F 80% 29.39 in 10.0 mi SSW 9.2 mph - N/A   Overcast
2:55 PM 26.6 °F 17.5 °F 21.2 °F 80% 29.39 in 10.0 mi SSW 9.2 mph - N/A   Overcast
3:15 PM 26.6 °F 18.2 °F 21.2 °F 80% 29.39 in 10.0 mi SSW 8.1 mph - N/A   Overcast
3:35 PM 26.6 °F 18.2 °F 21.2 °F 80% 29.40 in 10.0 mi SSW 8.1 mph - N/A   Overcast
3:55 PM 26.6 °F 19.1 °F 21.2 °F 80% 29.41 in 10.0 mi SSW 6.9 mph - N/A   Overcast
4:15 PM 26.6 °F 20.0 °F 21.2 °F 80% 29.41 in 10.0 mi SSW 5.8 mph - N/A   Overcast
4:35 PM 26.6 °F 20.0 °F 21.2 °F 80% 29.42 in 10.0 mi WSW 5.8 mph - N/A   Overcast
4:55 PM 26.6 °F 20.0 °F 21.2 °F 80% 29.43 in 9.0 mi SW 5.8 mph - N/A   Overcast
5:15 PM 26.6 °F 21.2 °F 21.2 °F 80% 29.44 in 9.0 mi SSW 4.6 mph - N/A   Overcast
5:35 PM 26.6 °F 22.6 °F 21.2 °F 80% 29.44 in 7.0 mi SSW 3.5 mph - N/A   Overcast
5:55 PM 26.6 °F 22.6 °F 23.0 °F 86% 29.45 in 1.2 mi WSW 3.5 mph - N/A   Overcast
6:15 PM 26.6 °F 22.6 °F 21.2 °F 80% 29.46 in 4.0 mi West 3.5 mph - N/A   Overcast
6:35 PM 26.6 °F 22.6 °F 23.0 °F 86% 29.46 in 7.0 mi West 3.5 mph - N/A   Overcast
6:55 PM 26.6 °F - 23.0 °F 86% 29.47 in 6.0 mi Calm Calm - N/A   Overcast
7:15 PM 26.6 °F - 23.0 °F 86% 29.48 in 5.0 mi Calm Calm - N/A   Overcast
7:35 PM 26.6 °F - 23.0 °F 86% 29.48 in 5.0 mi Calm Calm - N/A   Overcast
7:55 PM 26.6 °F - 23.0 °F 86% 29.49 in 5.0 mi Calm Calm - N/A   Overcast
8:15 PM 26.6 °F - 23.0 °F 86% 29.49 in 5.0 mi Calm Calm - N/A   Overcast
8:35 PM 24.8 °F 20.5 °F 23.0 °F 93% 29.50 in 5.0 mi North 3.5 mph - N/A   Overcast
8:55 PM 24.8 °F - 23.0 °F 93% 29.50 in 5.0 mi Calm Calm - N/A   Overcast
9:15 PM 24.8 °F 19.1 °F 21.2 °F 86% 29.51 in 5.0 mi North 4.6 mph - N/A   Overcast
9:35 PM 24.8 °F 20.5 °F 21.2 °F 86% 29.52 in 5.0 mi NNW 3.5 mph - N/A   Overcast
9:55 PM 24.8 °F 19.1 °F 23.0 °F 93% 29.52 in 5.0 mi NNW 4.6 mph - N/A   Overcast
10:15 PM 24.8 °F 17.9 °F 23.0 °F 93% 29.53 in 6.0 mi NNW 5.8 mph - N/A   Overcast
10:35 PM 24.8 °F 20.5 °F 21.2 °F 86% 29.53 in 7.0 mi NNW 3.5 mph - N/A   Overcast
10:55 PM 24.8 °F 17.9 °F 21.2 °F 86% 29.54 in 7.0 mi NNW 5.8 mph - N/A   Overcast
11:15 PM 24.8 °F 17.9 °F 21.2 °F 86% 29.54 in 7.0 mi NW 5.8 mph - N/A   Overcast
11:35 PM 24.8 °F 17.9 °F 21.2 °F 86% 29.54 in 8.0 mi NNW 5.8 mph - N/A   Overcast
11:55 PM 24.8 °F 16.9 °F 21.2 °F 86% 29.54 in 8.0 mi NNW 6.9 mph - N/A   Overcast